Time,TemperatureF,DewpointF,PressureIn,WindDirection,WindDirectionDegrees,WindSpeedMPH,WindSpeedGustMPH,Humidity,HourlyPrecipIn,Conditions,Clouds,dailyrainin,SoftwareType,DateUTC
2013-03-23 00:05:00,62.4,62.1,29.79,SSW,202,0.0,-999.0,99,-99.99,,,0.00,Acu-Link.com,2013-03-23 04:05:00,
2013-03-23 00:20:00,62.6,62.3,29.79,West,270,0.0,-999.0,99,-99.99,,,0.01,Acu-Link.com,2013-03-23 04:20:00,
2013-03-23 00:36:00,62.8,62.5,29.80,ESE,112,2.2,-999.0,99,-99.99,,,0.09,Acu-Link.com,2013-03-23 04:36:00,
2013-03-23 00:51:00,62.8,62.5,29.79,NNE,22,3.7,-999.0,99,-99.99,,,0.12,Acu-Link.com,2013-03-23 04:51:00,
2013-03-23 01:21:00,62.8,62.5,29.78,ESE,112,1.7,-999.0,99,-99.99,,,0.12,Acu-Link.com,2013-03-23 05:21:00,
2013-03-23 01:36:00,62.8,62.5,29.77,ESE,112,2.7,-999.0,99,-99.99,,,0.12,Acu-Link.com,2013-03-23 05:36:00,
2013-03-23 01:52:00,62.6,62.3,29.77,SSE,157,2.2,-999.0,99,-99.99,,,0.12,Acu-Link.com,2013-03-23 05:52:00,
2013-03-23 02:07:00,62.6,62.3,29.76,SE,135,2.2,-999.0,99,-99.99,,,0.12,Acu-Link.com,2013-03-23 06:07:00,
2013-03-23 02:22:00,62.4,62.1,29.76,WSW,247,0.0,-999.0,99,-99.99,,,0.12,Acu-Link.com,2013-03-23 06:22:00,
2013-03-23 02:37:00,62.4,62.1,29.76,SE,135,0.0,-999.0,99,-99.99,,,0.12,Acu-Link.com,2013-03-23 06:37:00,
2013-03-23 02:53:00,62.2,61.9,29.76,ESE,112,0.0,-999.0,99,-99.99,,,0.12,Acu-Link.com,2013-03-23 06:53:00,
2013-03-23 03:08:00,62.8,62.5,29.75,ESE,112,0.0,-999.0,99,-99.99,,,0.12,Acu-Link.com,2013-03-23 07:08:00,
2013-03-23 03:23:00,62.6,62.3,29.75,ESE,112,0.0,-999.0,99,-99.99,,,0.12,Acu-Link.com,2013-03-23 07:23:00,
2013-03-23 03:39:00,63.0,62.7,29.74,ESE,112,1.1,-999.0,99,-99.99,,,0.12,Acu-Link.com,2013-03-23 07:39:00,
2013-03-23 03:54:00,63.3,63.0,29.73,SSE,157,0.0,-999.0,99,-99.99,,,0.12,Acu-Link.com,2013-03-23 07:54:00,
2013-03-23 04:10:00,63.3,63.0,29.72,SSE,157,0.0,-999.0,99,-99.99,,,0.12,Acu-Link.com,2013-03-23 08:10:00,
2013-03-23 04:25:00,63.3,63.0,29.72,ESE,112,1.1,-999.0,99,-99.99,,,0.12,Acu-Link.com,2013-03-23 08:25:00,
2013-03-23 04:40:00,63.3,63.0,29.71,ENE,67,1.1,-999.0,99,-99.99,,,0.12,Acu-Link.com,2013-03-23 08:40:00,
2013-03-23 04:56:00,63.7,63.4,29.71,East,90,1.7,-999.0,99,-99.99,,,0.12,Acu-Link.com,2013-03-23 08:56:00,
2013-03-23 05:11:00,63.9,63.6,29.71,SSE,157,1.7,-999.0,99,-99.99,,,0.12,Acu-Link.com,2013-03-23 09:11:00,
2013-03-23 05:26:00,63.9,63.6,29.71,East,90,1.7,-999.0,99,-99.99,,,0.12,Acu-Link.com,2013-03-23 09:26:00,
2013-03-23 05:41:00,64.0,63.7,29.71,East,90,1.7,-999.0,99,-99.99,,,0.12,Acu-Link.com,2013-03-23 09:41:00,
2013-03-23 05:57:00,64.2,63.9,29.72,ESE,112,1.1,-999.0,99,-99.99,,,0.12,Acu-Link.com,2013-03-23 09:57:00,
2013-03-23 06:12:00,64.4,64.1,29.72,ESE,112,0.0,-999.0,99,-99.99,,,0.12,Acu-Link.com,2013-03-23 10:12:00,
2013-03-23 06:27:00,64.2,63.9,29.73,SSE,157,1.1,-999.0,99,-99.99,,,0.12,Acu-Link.com,2013-03-23 10:27:00,
2013-03-23 06:42:00,64.0,63.7,29.73,NNW,337,0.0,-999.0,99,-99.99,,,0.12,Acu-Link.com,2013-03-23 10:42:00,
2013-03-23 06:58:00,63.9,63.6,29.73,East,90,1.7,-999.0,99,-99.99,,,0.12,Acu-Link.com,2013-03-23 10:58:00,
2013-03-23 07:13:00,64.0,63.7,29.73,East,90,1.1,-999.0,99,-99.99,,,0.12,Acu-Link.com,2013-03-23 11:13:00,
2013-03-23 07:28:00,64.2,63.9,29.73,WSW,247,2.2,-999.0,99,-99.99,,,0.12,Acu-Link.com,2013-03-23 11:28:00,
2013-03-23 07:44:00,64.4,64.1,29.73,WSW,247,1.7,-999.0,99,-99.99,,,0.12,Acu-Link.com,2013-03-23 11:44:00,
2013-03-23 07:59:00,64.6,64.3,29.74,North,0,0.0,-999.0,99,-99.99,,,0.12,Acu-Link.com,2013-03-23 11:59:00,
2013-03-23 08:14:00,65.3,65.0,29.75,ESE,112,1.7,-999.0,99,-99.99,,,0.12,Acu-Link.com,2013-03-23 12:14:00,
2013-03-23 08:29:00,66.0,65.7,29.75,East,90,0.0,-999.0,99,-99.99,,,0.12,Acu-Link.com,2013-03-23 12:29:00,
2013-03-23 08:45:00,66.7,66.4,29.75,ENE,67,0.0,-999.0,99,-99.99,,,0.12,Acu-Link.com,2013-03-23 12:45:00,
2013-03-23 09:00:00,68.0,67.7,29.74,ESE,112,1.1,-999.0,99,-99.99,,,0.12,Acu-Link.com,2013-03-23 13:00:00,
2013-03-23 09:15:00,69.8,69.5,29.74,North,0,3.2,-999.0,99,-99.99,,,0.12,Acu-Link.com,2013-03-23 13:15:00,
2013-03-23 09:30:00,71.4,69.9,29.73,NE,45,3.2,-999.0,95,-99.99,,,0.12,Acu-Link.com,2013-03-23 13:30:00,
2013-03-23 10:17:00,75.7,71.5,29.72,ESE,112,4.2,-999.0,87,-99.99,,,0.12,Acu-Link.com,2013-03-23 14:17:00,
2013-03-23 10:32:00,78.4,72.8,29.72,SE,135,3.2,-999.0,83,-99.99,,,0.12,Acu-Link.com,2013-03-23 14:32:00,
2013-03-23 10:47:00,80.1,73.0,29.71,North,0,4.7,-999.0,79,-99.99,,,0.12,Acu-Link.com,2013-03-23 14:47:00,
2013-03-23 11:03:00,79.2,72.1,29.71,NW,315,3.7,-999.0,79,-99.99,,,0.12,Acu-Link.com,2013-03-23 15:03:00,
2013-03-23 11:18:00,80.6,72.7,29.71,West,270,5.8,-999.0,77,-99.99,,,0.12,Acu-Link.com,2013-03-23 15:18:00,
2013-03-23 11:33:00,79.5,72.0,29.72,NE,45,3.7,-999.0,78,-99.99,,,0.12,Acu-Link.com,2013-03-23 15:33:00,
2013-03-23 11:48:00,83.3,72.9,29.71,ENE,67,4.2,-999.0,71,-99.99,,,0.12,Acu-Link.com,2013-03-23 15:48:00,
2013-03-23 12:04:00,83.8,72.9,29.71,WNW,292,5.8,-999.0,70,-99.99,,,0.12,Acu-Link.com,2013-03-23 16:04:00,
2013-03-23 12:19:00,84.2,73.3,29.70,WNW,292,2.7,-999.0,70,-99.99,,,0.12,Acu-Link.com,2013-03-23 16:19:00,
2013-03-23 12:34:00,82.4,72.0,29.70,SW,225,3.7,-999.0,71,-99.99,,,0.12,Acu-Link.com,2013-03-23 16:34:00,
2013-03-23 12:49:00,83.1,71.4,29.69,WNW,292,4.7,-999.0,68,-99.99,,,0.12,Acu-Link.com,2013-03-23 16:49:00,
2013-03-23 13:05:00,85.5,71.9,29.67,West,270,6.8,-999.0,64,-99.99,,,0.12,Acu-Link.com,2013-03-23 17:05:00,
2013-03-23 13:20:00,86.5,71.9,29.67,SSE,157,5.3,-999.0,62,-99.99,,,0.12,Acu-Link.com,2013-03-23 17:20:00,
2013-03-23 13:35:00,86.4,70.3,29.66,WSW,247,7.3,-999.0,59,-99.99,,,0.12,Acu-Link.com,2013-03-23 17:35:00,
2013-03-23 13:51:00,86.7,70.1,29.65,West,270,6.3,-999.0,58,-99.99,,,0.12,Acu-Link.com,2013-03-23 17:51:00,
2013-03-23 14:37:00,88.3,70.6,29.62,WSW,247,5.3,-999.0,56,-99.99,,,0.12,Acu-Link.com,2013-03-23 18:37:00,
2013-03-23 14:52:00,87.1,70.5,29.61,NW,315,3.7,-999.0,58,-99.99,,,0.12,Acu-Link.com,2013-03-23 18:52:00,
2013-03-23 15:07:00,86.7,68.6,29.61,West,270,10.9,-999.0,55,-99.99,,,0.12,Acu-Link.com,2013-03-23 19:07:00,
2013-03-23 15:22:00,88.5,69.7,29.60,West,270,10.4,-999.0,54,-99.99,,,0.12,Acu-Link.com,2013-03-23 19:22:00,
2013-03-23 15:37:00,89.1,68.6,29.60,West,270,8.3,-999.0,51,-99.99,,,0.12,Acu-Link.com,2013-03-23 19:37:00,
2013-03-23 15:52:00,90.1,68.9,29.59,South,180,6.3,-999.0,50,-99.99,,,0.12,Acu-Link.com,2013-03-23 19:52:00,
2013-03-23 16:08:00,89.2,68.1,29.58,North,0,8.9,-999.0,50,-99.99,,,0.12,Acu-Link.com,2013-03-23 20:08:00,
2013-03-23 16:23:00,87.6,67.8,29.58,West,270,4.7,-999.0,52,-99.99,,,0.12,Acu-Link.com,2013-03-23 20:23:00,
2013-03-23 16:38:00,87.4,68.1,29.57,WNW,292,8.9,-999.0,53,-99.99,,,0.12,Acu-Link.com,2013-03-23 20:38:00,
2013-03-23 16:53:00,87.4,68.1,29.56,West,270,10.9,-999.0,53,-99.99,,,0.12,Acu-Link.com,2013-03-23 20:53:00,
2013-03-23 17:08:00,86.7,67.5,29.56,West,270,6.8,-999.0,53,-99.99,,,0.12,Acu-Link.com,2013-03-23 21:08:00,
2013-03-23 17:23:00,87.3,68.0,29.55,SW,225,12.5,-999.0,53,-99.99,,,0.12,Acu-Link.com,2013-03-23 21:23:00,
2013-03-23 17:38:00,85.3,66.2,29.56,WSW,247,5.3,-999.0,53,-99.99,,,0.12,Acu-Link.com,2013-03-23 21:38:00,
2013-03-23 17:53:00,84.7,66.2,29.56,WSW,247,11.9,-999.0,54,-99.99,,,0.12,Acu-Link.com,2013-03-23 21:53:00,
2013-03-23 18:08:00,85.3,67.3,29.56,NNE,22,5.8,-999.0,55,-99.99,,,0.12,Acu-Link.com,2013-03-23 22:08:00,
2013-03-23 18:23:00,83.3,67.4,29.56,WNW,292,5.3,-999.0,59,-99.99,,,0.12,Acu-Link.com,2013-03-23 22:23:00,
2013-03-23 18:38:00,81.9,66.6,29.57,West,270,7.8,-999.0,60,-99.99,,,0.12,Acu-Link.com,2013-03-23 22:38:00,
2013-03-23 18:53:00,82.6,67.3,29.58,WSW,247,6.3,-999.0,60,-99.99,,,0.12,Acu-Link.com,2013-03-23 22:53:00,
2013-03-23 19:09:00,81.7,66.9,29.58,ESE,112,4.2,-999.0,61,-99.99,,,0.12,Acu-Link.com,2013-03-23 23:09:00,
2013-03-23 19:24:00,80.8,67.0,29.58,WNW,292,5.3,-999.0,63,-99.99,,,0.12,Acu-Link.com,2013-03-23 23:24:00,
2013-03-23 19:39:00,79.7,66.9,29.59,West,270,3.7,-999.0,65,-99.99,,,0.12,Acu-Link.com,2013-03-23 23:39:00,
2013-03-23 19:55:00,79.0,67.1,29.59,WSW,247,1.7,-999.0,67,-99.99,,,0.12,Acu-Link.com,2013-03-23 23:55:00,
2013-03-23 20:10:00,78.3,66.8,29.59,NNE,22,2.2,-999.0,68,-99.99,,,0.12,Acu-Link.com,2013-03-24 00:10:00,
2013-03-23 20:25:00,77.7,66.3,29.61,WNW,292,4.7,-999.0,68,-99.99,,,0.12,Acu-Link.com,2013-03-24 00:25:00,
2013-03-23 20:40:00,77.0,66.4,29.62,ENE,67,1.7,-999.0,70,-99.99,,,0.12,Acu-Link.com,2013-03-24 00:40:00,
2013-03-23 20:56:00,76.3,66.2,29.62,West,270,4.2,-999.0,71,-99.99,,,0.12,Acu-Link.com,2013-03-24 00:56:00,
2013-03-23 21:11:00,75.7,66.0,29.62,West,270,3.2,-999.0,72,-99.99,,,0.12,Acu-Link.com,2013-03-24 01:11:00,
2013-03-23 21:26:00,75.6,66.3,29.62,West,270,1.7,-999.0,73,-99.99,,,0.12,Acu-Link.com,2013-03-24 01:26:00,
2013-03-23 21:41:00,74.8,66.7,29.64,SW,225,3.7,-999.0,76,-99.99,,,0.12,Acu-Link.com,2013-03-24 01:41:00,
2013-03-23 22:12:00,74.1,67.2,29.65,West,270,1.1,-999.0,79,-99.99,,,0.12,Acu-Link.com,2013-03-24 02:12:00,
2013-03-23 22:27:00,73.9,67.3,29.65,NE,45,0.0,-999.0,80,-99.99,,,0.12,Acu-Link.com,2013-03-24 02:27:00,
2013-03-23 22:42:00,72.5,67.0,29.65,East,90,0.0,-999.0,83,-99.99,,,0.12,Acu-Link.com,2013-03-24 02:42:00,
2013-03-23 22:58:00,72.0,66.9,29.66,ESE,112,0.0,-999.0,84,-99.99,,,0.12,Acu-Link.com,2013-03-24 02:58:00,
2013-03-23 23:13:00,72.1,68.0,29.66,East,90,0.0,-999.0,87,-99.99,,,0.12,Acu-Link.com,2013-03-24 03:13:00,
2013-03-23 23:28:00,72.1,68.0,29.65,East,90,0.0,-999.0,87,-99.99,,,0.12,Acu-Link.com,2013-03-24 03:28:00,
2013-03-23 23:43:00,71.6,67.9,29.65,SSW,202,0.0,-999.0,88,-99.99,,,0.12,Acu-Link.com,2013-03-24 03:43:00,
2013-03-23 23:58:00,71.6,67.9,29.64,ESE,112,2.2,-999.0,88,-99.99,,,0.12,Acu-Link.com,2013-03-24 03:58:00,